Regional Weather Roundup
Issued by NWS

Home | Current Version | Previous Version | Graphics & Text | Print | Product List | Glossary On
Versions: 1 2 3 4 5 6 7 8 9 10 11 12 13 14 15 16 17 18 19 20 21 22 23 24 25 26 27 28 29 30 31 32 33 34 35 36 37 38 39 40 41 42 43 44 45 46 47 48 49 50
000
ASUS43 KIND 051109
RWRIN

WEATHER ROUNDUP FOR INDIANA
NATIONAL WEATHER SERVICE INDIANAPOLIS IN
700 AM EDT TUE MAY 05 2015

NOTE: "FAIR" INDICATES FEW OR NO CLOUDS BELOW 12,000 FEET WITH NO
SIGNIFICANT WEATHER AND/OR OBSTRUCTIONS TO VISIBILITY.

* - STATION DOES NOT REPORT WEATHER SUCH AS PRECIPITATION OR FOG.

+ - STATION NOT QUALITY CONTROLLED BY THE NATIONAL WEATHER SERVICE.
    USE DATA WITH CAUTION...ESPECIALLY DEWPOINT AND RELATIVE
    HUMIDITY OBSERVATIONS.

INZ001>003-010>013-019-020-051200-
NORTHWEST INDIANA

CITY           SKY/WX    TMP DP  RH WIND       PRES   REMARKS
GARY /AIRPORT/ RAIN      50 N/A N/A NE3       30.22R
KNOX *+        CLOUDY    59  55  88 CALM      30.18S VSB 1
LA PORTE +     RAIN      60  60 100 CALM      30.20R
MICHIGAN CITY+ HVY RAIN  55  55 100 CALM      30.21R
MONTICELLO +   CLOUDY    60  60 100 E5        30.18R FOG
VALPARAISO     LGT RAIN  59  58  96 N3        30.20R VSB 1

$$

LMZ046-743>745-051200-
SOUTHERN LAKE MICHIGAN

STATION/POSITION TIME  TEMP    WIND        PRES    WAVE
                       AIR SEA DIR/SP/G            HT
                 (UTC) (F)     (DEG/KT/KT) (MB)    (FT)
BURNS HARBOR     1100   48     310/  8/ 10 1023.7R
MICHIGAN CITY    1100   50     330/  7/  8   N/A
5NW MICH CITY    1100   47 50  360/  6/  8   N/A     1

$$

INZ004-005-014>016-021>024-051200-
NORTH CENTRAL INDIANA

CITY           SKY/WX    TMP DP  RH WIND       PRES   REMARKS
ELKHART        RAIN      59  57  94 NE5       30.21
GOSHEN         LGT RAIN  61  59  93 SE7       30.20S FOG
LOGANSPORT +   CLOUDY    61  59  94 CALM      30.20R FOG
PERU/GRISSOM   CLOUDY    62  60  94 SE6       30.18S
ROCHESTER +    CLOUDY    63 N/A N/A CALM      30.20R FOG
SOUTH BEND     LGT RAIN  59  57  93 NE6       30.21R FOG
WARSAW +       CLOUDY    59  59 100 E3        30.20S FOG

$$

INZ006>009-017-018-025>027-051200-
NORTHEAST INDIANA

CITY           SKY/WX    TMP DP  RH WIND       PRES   REMARKS
ANGOLA *+      CLOUDY    57  57 100 E5        30.22S
AUBURN +       RAIN      59  57  94 CALM      30.22F
FORT WAYNE     RAIN      60  59  96 NE5       30.21S FOG
HUNTINGTON +   CLOUDY    60  59  97 CALM      30.20R FOG

$$

INZ028-029-035-036-043>045-051>053-051200-
WEST CENTRAL INDIANA

CITY           SKY/WX    TMP DP  RH WIND       PRES   REMARKS
CRAWFORDSVL +  CLOUDY    57  52  84 SE5       30.19R
GREENCASTLE +  PTCLDY    61  50  67 S3        30.21R
LAFAYETTE      CLOUDY    59  59 100 E5        30.17S FOG
TERRE HAUTE    PTCLDY    60  53  77 CALM      30.19R

$$

INZ030>032-037>040-046>048-054>057-064-065-051200-
CENTRAL INDIANA

CITY           SKY/WX    TMP DP  RH WIND       PRES   REMARKS
CP ATTERBURY + FOG       54  54 100 CALM      30.22S VSB<1/4
FISHERS *+     CLOUDY    61  61 100 S3        30.20S
FRANKFORT +    CLOUDY    60  60 100 E5        30.20S FOG
GREENWOOD *+   PTCLDY    63  57  82 S3        30.22R
INDIANAPOLIS   CLOUDY    63  56  78 S7        30.19R
-EAGLE CREEK   MOCLDY    62  59  90 CALM      30.19S
KOKOMO *+      CLOUDY    61  61 100 SE8       30.19S
MARION +       CLOUDY    60  59  96 SE7       30.21S
MT COMFORT *+  MOCLDY    63 N/A N/A S7        30.21S
SHELBYVILLE    PTCLDY    63  56  78 S7        30.21S
ZIONSVILLE +   CLOUDY    63  57  82 S5        30.21R

$$

INZ033-034-041-042-049-050-058-059-051200-
EAST CENTRAL INDIANA

CITY           SKY/WX    TMP DP  RH WIND       PRES   REMARKS
MUNCIE         CLOUDY    61  59  93 E5        30.21S

$$

INZ060-061-067>069-081>083-085>088-051200-
SOUTHWEST INDIANA

CITY           SKY/WX    TMP DP  RH WIND       PRES   REMARKS
EVANSVILLE     PTCLDY    60  54  80 CALM      30.22R
HUNTINGBURG *+ CLEAR     59  52  77 S3        30.23R
WASHINGTON +   CLEAR     58  53  81 S3        30.21R

$$

INZ062-063-066-070>080-084-089>092-051200-
SOUTH CENTRAL AND SOUTHEAST INDIANA

CITY           SKY/WX    TMP DP  RH WIND       PRES   REMARKS
BEDFORD +      CLEAR     57  54  88 S3        30.23R
BLOOMINGTON    PTCLDY    65  52  62 SW5       30.22R
MADISON *+     PTCLDY    59  54  82 CALM      30.26R
NORTH VERNON + MOCLDY    55  55 100 CALM      30.23S FOG
SEYMOUR +      PTCLDY    55  54  94 CALM      30.23R FOG

$$




USA.gov is the U.S. government's official web portal to all federal, state and local government web resources and services.